Plattsburgh, NY

4:17 AM EST on December 16, 2017 (GMT -0500)
Plattsburgh International

Weather History for KPBG - December, 2011

Change the Weather History Date:

Sunday, December 11, 2011

  Actual Average Record
Temperature  
Mean Temperature 30 °F 26 °F  
Max Temperature 38 °F 34 °F 57 °F (2015)
Min Temperature 22 °F 18 °F -7 °F (1958)
Degree Days  
Heating Degree Days 35 39  
Month to date heating degree days 333 403  
Since 1 July heating degree days 1637 2037  
Cooling Degree Days 0 0  
Month to date cooling degree days 0  
Year to date cooling degree days 346  
Moisture  
Dew Point 17 °F    
Average Humidity 60    
Maximum Humidity 75    
Minimum Humidity 44    
Precipitation  
Precipitation 0.00 in - 0.81 in (1952)
Month to date precipitation 0.48  
Year to date precipitation 38.28  
Sea Level Pressure  
Sea Level Pressure 30.48 in    
Wind  
Wind Speed 6 mph (South)    
Max Wind Speed 17 mph    
Max Gust Speed 23 mph    
Visibility 10 miles    
Events      
T = Trace of Precipitation, MM = Missing Value Source: NWS Daily Summary

Daily Weather History Graph

Daily Weather History Graph

Search for Another Location

Airport or City:

Trip Planner

Search our weather history database for the weather conditions in past years. The results will help you decide how hot, cold, wet, or windy it might be!

Date:

Astronomy

Dec. 11, 2011 Rise Set
Actual Time 7:20 AM EST 4:13 PM EST
Civil Twilight 6:47 AM EST 4:46 PM EST
Nautical Twilight 6:10 AM EST 5:23 PM EST
Astronomical Twilight 5:34 AM EST 5:59 PM EST
Moon 5:21 PM EST (12/11) 8:06 AM EST (12/11)
Length of Visible Light 9h 59m
Length of Day
8h 52m
Full, 99% of the Moon is Illuminated
Dec 11
Full
Dec 17
Last Quarter
Dec 24
New
Jan 1
First Quarter
Jan 9
Full

Hourly Weather History & Observations

Time (EST) Temp. Windchill Dew Point Humidity Pressure Visibility Wind Dir Wind Speed Gust Speed Precip Events Conditions
12:53 AM 25.0 °F - 12.9 °F 60% 30.43 in 10.0 mi Calm Calm - N/A   Overcast
1:53 AM 24.1 °F 19.7 °F 12.9 °F 62% 30.45 in 10.0 mi Variable 3.5 mph - N/A   Overcast
2:53 AM 24.1 °F - 12.9 °F 62% 30.47 in 10.0 mi Calm Calm - N/A   Partly Cloudy
3:53 AM 23.0 °F - 14.0 °F 68% 30.48 in 10.0 mi Calm Calm - N/A   Clear
4:53 AM 23.0 °F - 14.0 °F 68% 30.49 in 10.0 mi Calm Calm - N/A   Clear
5:53 AM 24.1 °F 18.2 °F 14.0 °F 65% 30.50 in 10.0 mi Variable 4.6 mph - N/A   Clear
6:53 AM 23.0 °F 18.4 °F 14.0 °F 68% 30.52 in 10.0 mi SW 3.5 mph - N/A   Clear
7:53 AM 24.1 °F 19.7 °F 14.0 °F 65% 30.54 in 10.0 mi WSW 3.5 mph - N/A   Clear
8:53 AM 28.0 °F 22.8 °F 14.0 °F 56% 30.56 in 10.0 mi Variable 4.6 mph - N/A   Clear
10:53 AM 34.0 °F 28.8 °F 15.1 °F 46% 30.54 in 10.0 mi South 5.8 mph - N/A   Overcast
11:53 AM 35.1 °F 26.9 °F 19.9 °F 54% 30.52 in 10.0 mi SE 11.5 mph - N/A   Overcast
12:53 PM 37.9 °F - 17.1 °F 43% 30.51 in 10.0 mi Calm Calm - N/A   Overcast
1:53 PM 36.0 °F 28.0 °F 19.0 °F 50% 30.48 in 10.0 mi South 11.5 mph 17.3 mph N/A   Mostly Cloudy
2:53 PM 33.1 °F 23.9 °F 19.9 °F 59% 30.47 in 10.0 mi SSE 12.7 mph 21.9 mph N/A   Clear
3:53 PM 32.0 °F 22.1 °F 19.9 °F 61% 30.46 in 10.0 mi South 13.8 mph - N/A   Clear
4:53 PM 30.9 °F 24.3 °F 19.9 °F 64% 30.46 in 10.0 mi South 6.9 mph - N/A   Clear
5:53 PM 30.0 °F 23.2 °F 19.0 °F 64% 30.45 in 10.0 mi South 6.9 mph - N/A   Clear
6:53 PM 27.0 °F 21.6 °F 19.0 °F 72% 30.45 in 10.0 mi SSE 4.6 mph - N/A   Clear
7:53 PM 30.0 °F 24.1 °F 19.0 °F 64% 30.45 in 10.0 mi South 5.8 mph - N/A   Clear
9:53 PM 30.0 °F 24.1 °F 19.9 °F 66% 30.43 in 10.0 mi South 5.8 mph - N/A   Clear
10:53 PM 30.0 °F 21.7 °F 19.9 °F 66% 30.44 in 10.0 mi South 9.2 mph - N/A   Clear
11:53 PM 30.0 °F 22.4 °F 19.0 °F 64% 30.43 in 10.0 mi South 8.1 mph - N/A   Clear